Location: Unspecified
(48.7670°N, 0.0000°E)
Time: 03:36:25
(UTC+00:00)

Vanguard 2 Rocket - Pass Details

Date: 09 October 2020
Orbit: 554 x 3326 km, 32.9° (Epoch: 26 October)

Event Time Altitude Azimuth Distance (km) Brightness Sun altitude
Exits shadow 01:14:43 38° 140° (SE) 3,954 9.8 -43.7°
Drops below altitude 10° 01:27:30 10° 108° (ESE) 6,256 11.2 -42.6°
Sets 01:32:52 0° 103° (ESE) 7,313 11.8 -42.1°
